Location: Étouvelles
(49.5207°N, 3.5808°E)
Time: 00:40:15
(UTC+00:00)

SL-08 ROCKET BODY - Pass Details

Date: 03 February 2023
Orbit: 897 x 962 km, 83.0° (Epoch: 01 April)

Event Time Altitude Azimuth Distance (km) Brightness Sun altitude
Rises 17:29:42 0° 352° (N) 3,552 7.4 -7.7°
Reaches altitude 10° 17:32:13 10° 355° (N) 2,599 6.6 -8.1°
Maximum altitude 17:38:05 65° 78° (ENE) 989 4.3 -9.0°
Drops below altitude 10° 17:43:52 10° 160° (SSE) 2,565 6.7 -10.0°
Sets 17:46:19 0° 163° (SSE) 3,502 7.4 -10.3°
